| time (UTC) | temp F | wind direction | speed MPH | gust MPH | rain 1hr in | rain 24hr in | rain mn in | humidity % | barometer mb |
| 20260510034117 | 44 | 90 | 5.0 | 6.0 | 0.00 | 0.35 | 0.35 | 97 | 1010.7 |
| 20260510033117 | 44 | 113 | 5.0 | 6.0 | 0.00 | 0.35 | 0.35 | 97 | 1010.7 |
| 20260510032117 | 44 | 113 | 4.0 | 6.0 | 0.00 | 0.35 | 0.35 | 97 | 1010.8 |
| 20260510031117 | 44 | 90 | 5.0 | 7.0 | 0.00 | 0.35 | 0.35 | 97 | 1011.1 |
| 20260510030116 | 44 | 113 | 5.0 | 6.0 | 0.00 | 0.35 | 0.35 | 97 | 1011.2 |
| 20260510025118 | 44 | 113 | 7.0 | 8.0 | 0.00 | 0.35 | 0.35 | 97 | 1011.3 |
| 20260510024116 | 44 | 113 | 5.0 | 7.0 | 0.00 | 0.35 | 0.35 | 97 | 1011.5 |
| 20260510023117 | 44 | 113 | 5.0 | 7.0 | 0.00 | 0.35 | 0.35 | 97 | 1011.6 |
| 20260510022117 | 44 | 113 | 6.0 | 7.0 | 0.00 | 0.35 | 0.35 | 97 | 1011.5 |
| 20260510021117 | 44 | 113 | 6.0 | 7.0 | 0.00 | 0.35 | 0.35 | 96 | 1011.6 |
| 20260510020116 | 44 | 90 | 6.0 | 8.0 | 0.00 | 0.35 | 0.35 | 96 | 1011.6 |
| 20260510015116 | 44 | 135 | 5.0 | 6.0 | 0.00 | 0.35 | 0.35 | 97 | 1011.7 |
| 20260510014116 | 44 | 135 | 8.0 | 11.0 | 0.00 | 0.35 | 0.35 | 97 | 1011.5 |
| 20260510013117 | 44 | 135 | 7.0 | 9.0 | 0.00 | 0.35 | 0.35 | 96 | 1011.6 |
| 20260510012137 | 44 | 113 | 7.0 | 9.0 | 0.00 | 0.35 | 0.35 | 96 | 1011.6 |
| 20260510011116 | 44 | 135 | 7.0 | 8.0 | 0.00 | 0.35 | 0.35 | 96 | 1011.7 |
| 20260510010116 | 44 | 113 | 6.0 | 7.0 | 0.00 | 0.35 | 0.35 | 96 | 1011.6 |
| 20260510005116 | 44 | 113 | 7.0 | 8.0 | 0.00 | 0.35 | 0.35 | 96 | 1011.6 |
| 20260510004137 | 44 | 135 | 7.0 | 9.0 | 0.00 | 0.35 | 0.35 | 96 | 1011.5 |
| 20260510003116 | 44 | 90 | 9.0 | 12.0 | 0.00 | 0.35 | 0.35 | 96 | 1011.2 |
| 20260510002116 | 44 | 135 | 8.0 | 9.0 | 0.00 | 0.35 | 0.35 | 96 | 1011.1 |
| 20260510001116 | 44 | 113 | 7.0 | 9.0 | 0.00 | 0.35 | 0.35 | 96 | 1010.9 |
| 20260510000116 | 44 | 113 | 9.0 | 11.0 | 0.00 | 0.35 | 0.35 | 95 | 1010.8 |
| 20260509235116 | 45 | 113 | 7.0 | 9.0 | 0.00 | 0.35 | 0.35 | 95 | 1010.6 |
| 20260509234116 | 45 | 135 | 7.0 | 9.0 | 0.00 | 0.35 | 0.35 | 95 | 1010.6 |
| 20260509233117 | 45 | 135 | 8.0 | 11.0 | 0.00 | 0.35 | 0.35 | 94 | 1010.5 |
| 20260509232157 | 45 | 113 | 7.0 | 9.0 | 0.00 | 0.35 | 0.35 | 94 | 1010.5 |
| 20260509231117 | 45 | 135 | 7.0 | 7.0 | 0.00 | 0.35 | 0.35 | 94 | 1010.3 |
| 20260509230137 | 45 | 135 | 8.0 | 9.0 | 0.00 | 0.35 | 0.35 | 94 | 1010.3 |
| 20260509225116 | 45 | 113 | 7.0 | 8.0 | 0.00 | 0.35 | 0.35 | 94 | 1010.3 |
| 20260509224116 | 45 | 113 | 8.0 | 9.0 | 0.00 | 0.35 | 0.35 | 94 | 1010.4 |
| 20260509223116 | 45 | 135 | 8.0 | 11.0 | 0.00 | 0.35 | 0.35 | 94 | 1010.3 |
| 20260509222116 | 45 | 135 | 10.0 | 13.0 | 0.01 | 0.35 | 0.35 | 94 | 1010.4 |
| 20260509221137 | 45 | 135 | 8.0 | 9.0 | 0.02 | 0.35 | 0.35 | 94 | 1010.5 |
| 20260509220116 | 45 | 113 | 7.0 | 9.0 | 0.03 | 0.35 | 0.35 | 93 | 1010.4 |
| 20260509215116 | 45 | 113 | 6.0 | 8.0 | 0.03 | 0.35 | 0.35 | 94 | 1010.5 |
| 20260509214116 | 45 | 135 | 5.0 | 6.0 | 0.04 | 0.35 | 0.35 | 94 | 1010.7 |
| 20260509213116 | 45 | 113 | 7.0 | 8.0 | 0.05 | 0.35 | 0.35 | 94 | 1010.6 |
| 20260509212116 | 45 | 135 | 10.0 | 14.0 | 0.04 | 0.34 | 0.34 | 94 | 1010.6 |
| 20260509211137 | 45 | 135 | 8.0 | 11.0 | 0.04 | 0.33 | 0.33 | 94 | 1010.7 |
| 20260509210116 | 45 | 135 | 7.0 | 9.0 | 0.04 | 0.32 | 0.32 | 94 | 1010.7 |
| 20260509205116 | 45 | 135 | 10.0 | 14.0 | 0.04 | 0.32 | 0.32 | 94 | 1010.6 |
| 20260509204117 | 45 | 113 | 5.0 | 6.0 | 0.05 | 0.31 | 0.31 | 94 | 1010.6 |
| 20260509203116 | 44 | 135 | 7.0 | 9.0 | 0.04 | 0.30 | 0.30 | 94 | 1010.6 |
| 20260509202116 | 44 | 135 | 10.0 | 12.0 | 0.05 | 0.30 | 0.30 | 94 | 1010.9 |
| 20260509201116 | 44 | 135 | 7.0 | 9.0 | 0.05 | 0.29 | 0.29 | 94 | 1010.9 |
| 20260509200137 | 44 | 113 | 4.0 | 5.0 | 0.05 | 0.28 | 0.28 | 94 | 1010.9 |
| 20260509195116 | 44 | 113 | 7.0 | 8.0 | 0.06 | 0.28 | 0.28 | 94 | 1010.9 |
| 20260509194116 | 44 | 113 | 7.0 | 8.0 | 0.05 | 0.26 | 0.27 | 93 | 1010.9 |
| 20260509193116 | 44 | 113 | 6.0 | 7.0 | 0.06 | 0.26 | 0.26 | 93 | 1011.2 |
| 20260509192117 | 44 | 113 | 6.0 | 7.0 | 0.06 | 0.25 | 0.25 | 93 | 1011.1 |
| 20260509191116 | 44 | 135 | 6.0 | 8.0 | 0.06 | 0.24 | 0.24 | 93 | 1011.3 |
| 20260509190136 | 44 | 113 | 6.0 | 7.0 | 0.07 | 0.23 | 0.23 | 93 | 1011.3 |
| 20260509185157 | 44 | 113 | 8.0 | 9.0 | 0.07 | 0.22 | 0.22 | 94 | 1011.4 |
| 20260509184116 | 44 | 113 | 7.0 | 8.0 | 0.07 | 0.21 | 0.21 | 94 | 1011.5 |
| 20260509183116 | 44 | 90 | 6.0 | 7.0 | 0.07 | 0.20 | 0.20 | 94 | 1011.5 |
| 20260509182116 | 44 | 113 | 5.0 | 7.0 | 0.07 | 0.19 | 0.19 | 94 | 1011.6 |
| 20260509181137 | 44 | 113 | 6.0 | 8.0 | 0.07 | 0.18 | 0.18 | 93 | 1011.6 |
| 20260509180117 | 45 | 90 | 8.0 | 9.0 | 0.05 | 0.16 | 0.16 | 93 | 1011.7 |
| 20260509175137 | 45 | 113 | 7.0 | 9.0 | 0.05 | 0.15 | 0.15 | 93 | 1011.9 |
| 20260509174156 | 45 | 113 | 7.0 | 8.0 | 0.05 | 0.14 | 0.14 | 93 | 1011.9 |
| 20260509173116 | 45 | 113 | 7.0 | 8.0 | 0.05 | 0.13 | 0.13 | 93 | 1011.9 |
| 20260509172116 | 45 | 113 | 7.0 | 8.0 | 0.04 | 0.12 | 0.12 | 92 | 1012.0 |
| 20260509171137 | 45 | 90 | 5.0 | 6.0 | 0.04 | 0.11 | 0.11 | 92 | 1012.0 |
| 20260509170116 | 45 | 135 | 6.0 | 7.0 | 0.05 | 0.11 | 0.11 | 92 | 1012.1 |
| 20260509165116 | 45 | 135 | 6.0 | 8.0 | 0.05 | 0.10 | 0.10 | 92 | 1012.1 |
| 20260509164116 | 45 | 135 | 10.0 | 12.0 | 0.05 | 0.09 | 0.09 | 92 | 1012.2 |
| 20260509163116 | 45 | 135 | 9.0 | 13.0 | 0.05 | 0.08 | 0.08 | 92 | 1012.3 |
| 20260509162116 | 45 | 135 | 7.0 | 9.0 | 0.06 | 0.08 | 0.08 | 92 | 1012.4 |
| 20260509161117 | 45 | 135 | 10.0 | 12.0 | 0.05 | 0.07 | 0.07 | 91 | 1012.5 |
| 20260509160137 | 45 | 135 | 7.0 | 8.0 | 0.05 | 0.06 | 0.06 | 91 | 1012.8 |
| 20260509155116 | 45 | 135 | 5.0 | 6.0 | 0.04 | 0.05 | 0.05 | 90 | 1012.9 |
| 20260509154136 | 45 | 135 | 7.0 | 8.0 | 0.04 | 0.04 | 0.04 | 90 | 1013.0 |
| 20260509153116 | 45 | 135 | 5.0 | 6.0 | 0.03 | 0.03 | 0.03 | 89 | 1013.2 |
| 20260509152116 | 45 | 135 | 7.0 | 8.0 | 0.02 | 0.02 | 0.02 | 89 | 1013.1 |
| 20260509151116 | 46 | 135 | 6.0 | 7.0 | 0.02 | 0.02 | 0.02 | 88 | 1013.0 |
| 20260509150116 | 46 | 135 | 4.0 | 8.0 | 0.01 | 0.01 | 0.01 | 87 | 1013.1 |
| 20260509145116 | 46 | 135 | 8.0 | 11.0 | 0.01 | 0.01 | 0.01 | 87 | 1012.9 |
| 20260509144116 | 46 | 113 | 7.0 | 11.0 | 0.00 | 0.00 | 0.00 | 84 | 1012.9 |
| 20260509143136 | 47 | 135 | 6.0 | 7.0 | 0.00 | 0.00 | 0.00 | 79 | 1012.9 |
| 20260509142116 | 47 | 135 | 6.0 | 7.0 | 0.00 | 0.00 | 0.00 | 77 | 1013.0 |
| 20260509141116 | 48 | 135 | 8.0 | 13.0 | 0.00 | 0.00 | 0.00 | 75 | 1013.0 |
| 20260509140157 | 49 | 203 | 1.0 | 2.0 | 0.00 | 0.00 | 0.00 | 74 | 1013.0 |
| 20260509135116 | 49 | 135 | 5.0 | 8.0 | 0.00 | 0.00 | 0.00 | 67 | 1013.0 |
| 20260509134116 | 49 | 135 | 3.0 | 5.0 | 0.00 | 0.00 | 0.00 | 63 | 1012.9 |
| 20260509133116 | 48 | 135 | 5.0 | 6.0 | 0.00 | 0.00 | 0.00 | 63 | 1012.8 |
| 20260509132116 | 48 | 0.0 | 1.0 | 0.00 | 0.00 | 0.00 | 65 | 1012.8 | |
| 20260509131116 | 47 | 0.0 | 1.0 | 0.00 | 0.00 | 0.00 | 64 | 1012.7 | |
| 20260509130116 | 48 | 135 | 2.0 | 4.0 | 0.00 | 0.00 | 0.00 | 63 | 1012.7 |
| 20260509125116 | 47 | 135 | 2.0 | 4.0 | 0.00 | 0.00 | 0.00 | 60 | 1012.9 |
| 20260509124116 | 47 | 135 | 1.0 | 1.0 | 0.00 | 0.00 | 0.00 | 62 | 1013.1 |
| 20260509123156 | 47 | 158 | 1.0 | 2.0 | 0.00 | 0.00 | 0.00 | 64 | 1013.2 |
| 20260509122136 | 46 | 90 | 1.0 | 1.0 | 0.00 | 0.00 | 0.00 | 69 | 1013.4 |
| 20260509121116 | 45 | 0.0 | 0.0 | 0.00 | 0.00 | 0.00 | 72 | 1013.2 | |
| 20260509120116 | 45 | 90 | 1.0 | 1.0 | 0.00 | 0.00 | 0.00 | 77 | 1013.3 |
| 20260509115137 | 44 | 90 | 1.0 | 2.0 | 0.00 | 0.00 | 0.00 | 79 | 1013.3 |
| 20260509114116 | 43 | 0.0 | 0.0 | 0.00 | 0.00 | 0.00 | 82 | 1013.5 | |
| 20260509113116 | 42 | 0.0 | 0.0 | 0.00 | 0.00 | 0.00 | 84 | 1013.7 | |
| 20260509112116 | 41 | 0.0 | 0.0 | 0.00 | 0.00 | 0.00 | 88 | 1013.5 | |
| 20260509111116 | 39 | 0.0 | 0.0 | 0.00 | 0.00 | 0.00 | 89 | 1013.4 | |
| 20260509110116 | 38 | 0.0 | 1.0 | 0.00 | 0.00 | 0.00 | 90 | 1013.4 | |
| 20260509105117 | 37 | 338 | 1.0 | 3.0 | 0.00 | 0.00 | 0.00 | 91 | 1013.4 |
| 20260509104116 | 36 | 338 | 1.0 | 2.0 | 0.00 | 0.00 | 0.00 | 93 | 1013.2 |
| 20260509103136 | 36 | 338 | 1.0 | 2.0 | 0.00 | 0.00 | 0.00 | 93 | 1013.3 |
| 20260509102116 | 35 | 338 | 1.0 | 3.0 | 0.00 | 0.00 | 0.00 | 93 | 1013.2 |
| 20260509101116 | 35 | 0.0 | 0.0 | 0.00 | 0.00 | 0.00 | 94 | 1013.2 | |
| 20260509100136 | 34 | 0.0 | 0.0 | 0.00 | 0.00 | 0.00 | 94 | 1013.0 | |
| 20260509095116 | 34 | 0.0 | 0.0 | 0.00 | 0.00 | 0.00 | 93 | 1012.6 | |
| 20260509094137 | 34 | 0.0 | 0.0 | 0.00 | 0.00 | 0.00 | 93 | 1012.6 | |
| 20260509093116 | 34 | 0.0 | 1.0 | 0.00 | 0.00 | 0.00 | 93 | 1012.4 | |
| 20260509092116 | 33 | 0.0 | 0.0 | 0.00 | 0.00 | 0.00 | 93 | 1012.3 | |
| 20260509091116 | 33 | 0.0 | 0.0 | 0.00 | 0.00 | 0.00 | 93 | 1012.1 | |
| 20260509090116 | 33 | 0.0 | 1.0 | 0.00 | 0.00 | 0.00 | 93 | 1012.1 | |
| 20260509085136 | 34 | 0.0 | 1.0 | 0.00 | 0.00 | 0.00 | 93 | 1012.1 | |
| 20260509084116 | 34 | 0.0 | 0.0 | 0.00 | 0.00 | 0.00 | 93 | 1012.1 | |
| 20260509083116 | 34 | 0.0 | 0.0 | 0.00 | 0.00 | 0.00 | 92 | 1012.1 | |
| 20260509082116 | 34 | 0.0 | 0.0 | 0.00 | 0.00 | 0.00 | 92 | 1011.9 | |
| 20260509081116 | 34 | 0.0 | 0.0 | 0.00 | 0.00 | 0.00 | 93 | 1012.0 | |
| 20260509080116 | 34 | 0.0 | 1.0 | 0.00 | 0.00 | 0.00 | 93 | 1011.9 | |
| 20260509075116 | 34 | 0.0 | 0.0 | 0.00 | 0.00 | 0.00 | 92 | 1012.0 | |
| 20260509074116 | 34 | 338 | 1.0 | 3.0 | 0.00 | 0.00 | 0.00 | 92 | 1011.9 |
| 20260509073116 | 34 | 0.0 | 0.0 | 0.00 | 0.00 | 0.00 | 92 | 1012.2 | |
| 20260509072116 | 34 | 0.0 | 0.0 | 0.00 | 0.00 | 0.00 | 92 | 1012.3 | |
| 20260509071116 | 34 | 0.0 | 0.0 | 0.00 | 0.00 | 0.00 | 91 | 1012.2 | |
| 20260509070116 | 34 | 0.0 | 0.0 | 0.00 | 0.00 | 0.00 | 91 | 1012.2 | |
| 20260509065116 | 35 | 0.0 | 0.0 | 0.00 | 0.00 | 0.00 | 91 | 1012.4 | |
| 20260509064116 | 35 | 0.0 | 1.0 | 0.00 | 0.00 | 0.00 | 91 | 1012.4 | |
| 20260509063116 | 35 | 0.0 | 0.0 | 0.00 | 0.00 | 0.00 | 91 | 1012.3 | |
| 20260509062136 | 35 | 0.0 | 0.0 | 0.00 | 0.00 | 0.00 | 90 | 1012.4 | |
| 20260509061116 | 36 | 0.0 | 0.0 | 0.00 | 0.00 | 0.00 | 90 | 1012.4 | |
| 20260509060136 | 36 | 315 | 1.0 | 2.0 | 0.00 | 0.00 | 0.00 | 89 | 1012.5 |
| 20260509055116 | 36 | 0.0 | 0.0 | 0.00 | 0.00 | 0.00 | 89 | 1012.4 | |
| 20260509054116 | 36 | 315 | 1.0 | 1.0 | 0.00 | 0.00 | 0.00 | 88 | 1012.4 |
| 20260509053116 | 36 | 0.0 | 0.0 | 0.00 | 0.00 | 0.00 | 88 | 1012.3 | |
| 20260509052116 | 37 | 0.0 | 2.0 | 0.00 | 0.00 | 0.00 | 88 | 1012.2 | |
| 20260509051116 | 37 | 0.0 | 2.0 | 0.00 | 0.00 | 0.00 | 87 | 1012.2 | |
| 20260509050116 | 37 | 0.0 | 0.0 | 0.00 | 0.00 | 0.00 | 87 | 1012.2 | |
| 20260509045116 | 38 | 0.0 | 0.0 | 0.00 | 0.00 | 0.00 | 86 | 1012.2 | |
| 20260509044117 | 38 | 0.0 | 0.0 | 0.00 | 0.00 | 0.00 | 86 | 1012.1 | |
| 20260509043136 | 39 | 0.0 | 0.0 | 0.00 | 0.00 | 0.00 | 85 | 1012.1 | |
| 20260509042116 | 39 | 0.0 | 0.0 | 0.00 | 0.00 | 0.00 | 84 | 1012.1 | |
| 20260509041116 | 39 | 0.0 | 0.0 | 0.00 | 0.00 | 0.00 | 82 | 1012.2 | |
| 20260509040116 | 39 | 0.0 | 0.0 | 0.00 | 0.00 | 0.00 | 81 | 1012.1 | |
| 20260509035117 | 40 | 0.0 | 0.0 | 0.00 | 0.00 | 0.00 | 80 | 1012.1 |